Home   Weather   Włocławek   Past weeks

Flag for Poland Past Weather in Włocławek, Poland — Yesterday and Last 2 Weeks

Now
20 °F

Duststorm.


Feels Like: 20 °F
Forecast: 19 / 25 °F
Wind: 1 mph from Southwest

Location: Plock

Current Time: Jan 18, 2017 at 5:18:00 pm

Latest Report: Jan 18, 2017 at 4:00 pm


Visibility: 1 mi

Pressure: 30.77 "Hg

Humidity: 93%

Dew Point: 18 °F

Location of WłocławekLocation

Past Weather in Włocławek — Graph

°F

Włocławek Temperature Yesterday

Maximum temperature yesterday: 29 °F (at 5:00 am)
Minimum temperature yesterday: 18 °F (at 7:00 pm)
Average temperature yesterday: 25 °F

High & Low Weather Summary for the Past Weeks

 TemperatureHumidityPressure
High38 °F (Jan 13, 4:00 pm)97% (Jan 3, 6:00 pm)30.78 "Hg (Jan 3, 6:00 pm)
Low4 °F (Jan 7, 1:00 am)52% (Jan 8, 1:00 pm)29.12 "Hg (Jan 4, 4:00 pm)
Average23 °F83%30.05 "Hg
* Reported Jan 3 3:00 pm — Jan 18 3:00 pm, Włocławek, Weather by CustomWeather, © 2017

Note: Actual official high and low records may vary slightly from our data, if they occured in-between our weather recording intervals... More about our weather records

Advertising

Włocławek Weather History for the Previous 24 Hours

Scroll right to see more
 ConditionsComfort  
Time TempWeatherWind HumidityBarometerVisibility
3:00 pm
Wed, Jan 18
20 °FDuststorm.2 mph93%30.76 "Hg1 mi
2:00 pm20 °FFog.2 mph93%30.76 "Hg1 mi
1:00 pm19 °FCold.2 mph93%30.76 "Hg1 mi
12:00 pm18 °FCold.2 mph92%30.77 "Hg1 mi
11:00 am18 °FCold.2 mph92%30.78 "Hg1 mi
10:00 am18 °FDuststorm.2 mph92%30.77 "Hg1 mi
9:00 am18 °FSnow flurries. Cloudy.1 mph92%30.76 "Hg1 mi
8:00 am18 °FLight snow. Cloudy.1 mph93%30.75 "Hg0 mi
7:00 am20 °FSnow flurries. Overcast.2 mph92%30.73 "Hg1 mi
6:00 am21 °FSnow flurries. Overcast.1 mph92%30.72 "Hg1 mi
5:00 am22 °FFog.1 mph93%30.71 "Hg1 mi
4:00 am21 °FFog.1 mph94%30.71 "Hg1 mi
3:00 am20 °FFog.2 mph93%30.71 "Hg1 mi
2:00 am17 °FFog.1 mph92%30.72 "Hg1 mi
1:00 am18 °FFog.1 mph92%30.71 "Hg1 mi
12:00 am20 °FFog.1 mph93%30.70 "Hg1 mi
11:00 pm
Tue, Jan 17
19 °FFog.1 mph92%30.70 "Hg1 mi
10:00 pm20 °FFog.No wind92%30.69 "Hg1 mi
9:00 pm20 °FFog.1 mph93%30.69 "Hg1 mi
8:00 pm19 °FFog.1 mph92%30.68 "Hg1 mi
7:00 pm18 °FFog.1 mph91%30.66 "Hg1 mi
6:00 pm20 °FFog.1 mph91%30.65 "Hg1 mi
5:00 pm21 °FFog.1 mph88%30.63 "Hg2 mi
Weather by CustomWeather, © 2017

See weather overviewHow to use our weather pages